Tracking 31033 objects as of 15-Jul-2025
HD Live streaming from Space Station
objects crossing your sky now

STARLINK-32936

Track STARLINK-32936 now!
10-day predictions
STARLINK-32936 is classified as:


NORAD ID: 63147
Int'l Code: 2025-043R
Perigee: 489.3 km
Apogee: 491.2 km
Inclination: 43.0 °
Period: 94.3 minutes
Semi major axis: 6861 km
RCS: Unknown
Launch date: March 2, 2024
Source: United States (US)
Launch site: AIR FORCE EASTERN TEST RANGE (AFETR)
Your satellite tracking list
Your tracking list is empty




NASA's NSSDC Master Catalog

Two Line Element Set (TLE):
1 63147U 25043R   25195.55508971  .00016164  00000-0  59587-3 0  9992
2 63147  42.9999 287.9425 0001346 263.9130  96.1568 15.27567078 20869
Source of the keplerian elements: AFSPC